Silver Bay, MN

4:51 AM CST on December 10, 2019 (GMT -0600)
Silver Bay Municipal

Weather History for KBFW - November, 2019

Change the Weather History Date:

Monday, November 18, 2019

  Actual Average Record
Temperature  
Mean Temperature 29 °F -  
Max Temperature 30 °F 33 °F 57 °F (2015)
Min Temperature 28 °F 18 °F 5 °F (2008)
Degree Days  
Heating Degree Days 36    
Moisture  
Dew Point 26 °F    
Average Humidity 86    
Maximum Humidity 93    
Minimum Humidity 75    
Precipitation  
Precipitation 0.00 in - - ()
Sea Level Pressure  
Sea Level Pressure 29.71 in    
Wind  
Wind Speed 1 mph (SSW)    
Max Wind Speed 8 mph    
Max Gust Speed -    
Visibility 10 miles    
Events      
Averages and records for this station are not official NWS values.
T = Trace of Precipitation, MM = Missing Value Source: NWS Daily Summary

Daily Weather History Graph

Daily Weather History Graph

Search for Another Location

Airport or City:

Astronomy

Nov. 18, 2019 Rise Set
Actual Time 7:13 AM CST 4:27 PM CST
Civil Twilight 6:40 AM CST 5:00 PM CST
Nautical Twilight 6:02 AM CST 5:38 PM CST
Astronomical Twilight 5:26 AM CST 6:14 PM CST
Moon 10:11 PM CST (11/18) 12:47 PM CST (11/18)
Length of Visible Light 10h 20m
Length of Day
9h 13m
Waning Gibbous, 63% of the Moon is Illuminated
Nov 18
Waning Gibbous
Nov 19
Last Quarter
Nov 26
New
Dec 4
First Quarter
Dec 11
Full

Hourly Weather History & Observations

Time (CST) Temp. Windchill Dew Point Humidity Pressure Visibility Wind Dir Wind Speed Gust Speed Precip Events Conditions
12:15 AM 28.4 °F - 26.6 °F 93% 29.76 in 10.0 mi Calm Calm - N/A   Overcast
12:16 AM 28.4 °F - 26.6 °F 93% 29.76 in 10.0 mi Calm Calm - N/A   Overcast
12:35 AM 28.4 °F 24.6 °F 26.6 °F 93% 29.76 in 10.0 mi NW 3.5 mph - N/A   Overcast
12:36 AM 28.4 °F - 26.6 °F 93% 29.76 in 10.0 mi Calm Calm - N/A   Overcast
12:55 AM 28.4 °F - 26.6 °F 93% 29.75 in 10.0 mi Calm Calm - N/A   Overcast
12:56 AM 28.4 °F - 26.6 °F 93% 29.75 in 10.0 mi Calm Calm - N/A   Overcast
1:35 AM 28.4 °F - 26.6 °F 93% 29.75 in 10.0 mi Calm Calm - N/A   Overcast
1:36 AM 28.4 °F - 26.6 °F 93% 29.75 in 10.0 mi Calm Calm - N/A   Overcast
1:55 AM 28.4 °F - 26.6 °F 93% 29.75 in 10.0 mi Calm Calm - N/A   Overcast
2:15 AM 28.4 °F - 26.6 °F 93% 29.75 in 10.0 mi Calm Calm - N/A   Overcast
2:16 AM 28.4 °F - 26.6 °F 93% 29.75 in 10.0 mi Calm Calm - N/A   Overcast
2:35 AM 28.4 °F 24.6 °F 26.6 °F 93% 29.75 in 10.0 mi West 3.5 mph - N/A   Overcast
2:36 AM 28.4 °F - 26.6 °F 93% 29.75 in 10.0 mi Calm Calm - N/A   Overcast
2:55 AM 28.4 °F - 26.6 °F 93% 29.74 in 10.0 mi Calm Calm - N/A   Overcast
3:15 AM 28.4 °F - 26.6 °F 93% 29.74 in 10.0 mi Calm Calm - N/A   Overcast
3:16 AM 28.4 °F - 26.6 °F 93% 29.74 in 10.0 mi Calm Calm - N/A   Overcast
3:35 AM 28.4 °F - 26.6 °F 93% 29.73 in 10.0 mi Calm Calm - N/A   Overcast
3:36 AM 28.4 °F - 26.6 °F 93% 29.74 in 10.0 mi Calm Calm - N/A   Overcast
3:55 AM 28.4 °F - 26.6 °F 93% 29.73 in 10.0 mi Calm Calm - N/A   Overcast
4:15 AM 28.4 °F - 26.6 °F 93% 29.73 in 10.0 mi Calm Calm - N/A   Overcast
4:16 AM 28.4 °F - 26.6 °F 93% 29.73 in 10.0 mi Calm Calm - N/A   Overcast
4:35 AM 28.4 °F - 26.6 °F 93% 29.74 in 10.0 mi Calm Calm - N/A   Overcast
4:55 AM 28.4 °F - 26.6 °F 93% 29.74 in 10.0 mi Calm Calm - N/A   Overcast
4:56 AM 28.4 °F - 26.6 °F 93% 29.73 in 10.0 mi Calm Calm - N/A   Overcast
5:15 AM 28.4 °F - 26.6 °F 93% 29.73 in 10.0 mi Calm Calm - N/A   Overcast
5:36 AM 28.4 °F - 26.6 °F 93% 29.73 in 10.0 mi Calm Calm - N/A   Overcast
5:55 AM 28.4 °F - 26.6 °F 93% 29.74 in 10.0 mi Calm Calm - N/A   Overcast
5:56 AM 28.4 °F - 26.6 °F 93% 29.74 in 10.0 mi Calm Calm - N/A   Overcast
6:15 AM 28.4 °F - 26.6 °F 93% 29.74 in 10.0 mi Calm Calm - N/A   Overcast
6:16 AM 28.4 °F - 26.6 °F 93% 29.74 in 10.0 mi Calm Calm - N/A   Overcast
6:35 AM 28.4 °F - 26.6 °F 93% 29.73 in 10.0 mi Calm Calm - N/A   Overcast
6:55 AM 28.4 °F - 26.6 °F 93% 29.73 in 10.0 mi Calm Calm - N/A   Overcast
6:56 AM 28.4 °F - 26.6 °F 93% 29.73 in 10.0 mi Calm Calm - N/A   Overcast
7:15 AM 28.4 °F - 26.6 °F 93% 29.74 in 10.0 mi Calm Calm - N/A   Overcast
7:16 AM 28.4 °F - 26.6 °F 93% 29.74 in 10.0 mi Calm Calm - N/A   Overcast
7:35 AM 28.4 °F - 26.6 °F 93% 29.74 in 10.0 mi Calm Calm - N/A   Overcast
7:55 AM 28.4 °F - 26.6 °F 93% 29.74 in 10.0 mi Calm Calm - N/A   Overcast
8:15 AM 28.4 °F - 26.6 °F 93% 29.74 in 10.0 mi Calm Calm - N/A   Overcast
8:35 AM 28.4 °F - 26.6 °F 93% 29.74 in 10.0 mi Calm Calm - N/A   Overcast
8:55 AM 28.4 °F 24.6 °F 26.6 °F 93% 29.73 in 10.0 mi SSW 3.5 mph - N/A   Overcast
9:15 AM 28.4 °F - 26.6 °F 93% 29.73 in 10.0 mi Calm Calm - N/A   Overcast
9:55 AM 30.2 °F 26.7 °F 26.6 °F 86% 29.72 in 10.0 mi SSW 3.5 mph - N/A   Overcast
10:15 AM 30.2 °F - 26.6 °F 86% 29.72 in 10.0 mi Calm Calm - N/A   Overcast
10:35 AM 30.2 °F 25.4 °F 26.6 °F 86% 29.72 in 10.0 mi SSW 4.6 mph - N/A   Overcast
10:55 AM 30.2 °F 24.3 °F 26.6 °F 86% 29.71 in 10.0 mi SW 5.8 mph - N/A   Overcast
11:15 AM 30.2 °F 24.3 °F 26.6 °F 86% 29.70 in 10.0 mi South 5.8 mph - N/A   Overcast
11:16 AM 30.2 °F 24.3 °F 26.6 °F 86% 29.70 in 10.0 mi SSW 5.8 mph - N/A   Overcast
11:35 AM 30.2 °F 24.3 °F 26.6 °F 86% 29.70 in 10.0 mi South 5.8 mph - N/A   Overcast
12:15 PM 30.2 °F 22.6 °F 26.6 °F 86% 29.68 in 10.0 mi SSW 8.1 mph - N/A   Overcast
12:55 PM 30.2 °F 26.7 °F 26.6 °F 86% 29.69 in 10.0 mi WSW 3.5 mph - N/A   Overcast
1:15 PM 30.2 °F 22.6 °F 26.6 °F 86% 29.68 in 10.0 mi SSW 8.1 mph - N/A   Overcast
1:35 PM 30.2 °F 24.3 °F 26.6 °F 86% 29.68 in 10.0 mi South 5.8 mph - N/A   Overcast
1:55 PM 30.2 °F 24.3 °F 26.6 °F 86% 29.68 in 10.0 mi South 5.8 mph - N/A   Overcast
2:15 PM 30.2 °F 24.3 °F 26.6 °F 86% 29.68 in 10.0 mi South 5.8 mph - N/A   Overcast
2:16 PM 30.2 °F 24.3 °F 26.6 °F 86% 29.68 in 10.0 mi South 5.8 mph - N/A   Overcast
2:35 PM 30.2 °F 25.4 °F 26.6 °F 86% 29.68 in 10.0 mi SSW 4.6 mph - N/A   Overcast
2:55 PM 30.2 °F 22.6 °F 26.6 °F 86% 29.68 in 10.0 mi SSW 8.1 mph - N/A   Overcast
2:56 PM 30.2 °F 22.6 °F 26.6 °F 86% 29.68 in 10.0 mi SSW 8.1 mph - N/A   Overcast
3:15 PM 30.2 °F 23.4 °F 23.0 °F 75% 29.68 in 10.0 mi SSW 6.9 mph - N/A   Overcast
3:16 PM 30.2 °F 24.3 °F 23.0 °F 75% 29.68 in 10.0 mi SSW 5.8 mph - N/A   Overcast
3:35 PM 30.2 °F - 23.0 °F 75% 29.68 in 10.0 mi Calm Calm - N/A   Overcast
3:55 PM 30.2 °F 26.7 °F 23.0 °F 75% 29.68 in 10.0 mi SSW 3.5 mph - N/A   Overcast
3:56 PM 30.2 °F 26.7 °F 24.8 °F 80% 29.68 in 10.0 mi SSW 3.5 mph - N/A   Overcast
4:15 PM 30.2 °F 26.7 °F 23.0 °F 75% 29.68 in 10.0 mi SSW 3.5 mph - N/A   Overcast
4:35 PM 30.2 °F 26.7 °F 23.0 °F 75% 29.68 in 10.0 mi South 3.5 mph - N/A   Overcast
4:36 PM 30.2 °F 26.7 °F 24.8 °F 80% 29.68 in 10.0 mi South 3.5 mph - N/A   Overcast
4:55 PM 30.2 °F - 23.0 °F 75% 29.68 in 10.0 mi Calm Calm - N/A   Overcast
5:15 PM 30.2 °F - 24.8 °F 80% 29.68 in 10.0 mi Calm Calm - N/A   Overcast
5:16 PM 30.2 °F - 24.8 °F 80% 29.68 in 10.0 mi Calm Calm - N/A   Overcast
5:35 PM 30.2 °F - 24.8 °F 80% 29.67 in 10.0 mi Calm Calm - N/A   Overcast
5:55 PM 30.2 °F - 24.8 °F 80% 29.67 in 10.0 mi Calm Calm - N/A   Overcast
6:15 PM 30.2 °F - 24.8 °F 80% 29.69 in 10.0 mi Calm Calm - N/A   Overcast
6:35 PM 30.2 °F - 24.8 °F 80% 29.69 in 10.0 mi Calm Calm - N/A   Overcast
6:36 PM 30.2 °F - 24.8 °F 80% 29.69 in 10.0 mi Calm Calm - N/A   Overcast
6:55 PM 30.2 °F - 24.8 °F 80% 29.68 in 10.0 mi Calm Calm - N/A   Overcast
7:35 PM 30.2 °F - 24.8 °F 80% 29.69 in 10.0 mi Calm Calm - N/A   Overcast
7:36 PM 30.2 °F - 24.8 °F 80% 29.69 in 10.0 mi Calm Calm - N/A   Overcast
7:55 PM 30.2 °F - 24.8 °F 80% 29.68 in 10.0 mi Calm Calm - N/A   Overcast
8:15 PM 30.2 °F - 24.8 °F 80% 29.67 in 10.0 mi Calm Calm - N/A   Overcast
8:16 PM 30.2 °F - 24.8 °F 80% 29.68 in 10.0 mi Calm Calm - N/A   Overcast
8:35 PM 30.2 °F - 24.8 °F 80% 29.68 in 10.0 mi Calm Calm - N/A   Overcast
8:36 PM 30.2 °F - 24.8 °F 80% 29.68 in 10.0 mi Calm Calm - N/A   Overcast
8:55 PM 30.2 °F 26.7 °F 24.8 °F 80% 29.68 in 10.0 mi South 3.5 mph - N/A   Overcast
8:56 PM 30.2 °F 25.4 °F 24.8 °F 80% 29.68 in 10.0 mi South 4.6 mph - N/A   Overcast
9:15 PM 30.2 °F 24.3 °F 24.8 °F 80% 29.68 in 10.0 mi South 5.8 mph - N/A   Overcast
9:35 PM 30.2 °F - 24.8 °F 80% 29.68 in 10.0 mi Calm Calm - N/A   Overcast
9:36 PM 30.2 °F - 24.8 °F 80% 29.68 in 10.0 mi Calm Calm - N/A   Overcast
9:55 PM 30.2 °F 26.7 °F 24.8 °F 80% 29.68 in 10.0 mi SSW 3.5 mph - N/A   Overcast
9:56 PM 30.2 °F 26.7 °F 24.8 °F 80% 29.68 in 10.0 mi SSW 3.5 mph - N/A   Overcast
10:15 PM 30.2 °F - 24.8 °F 80% 29.68 in 10.0 mi Calm Calm - N/A   Overcast
10:16 PM 30.2 °F - 24.8 °F 80% 29.68 in 10.0 mi Calm Calm - N/A   Overcast
10:35 PM 30.2 °F - 24.8 °F 80% 29.68 in 10.0 mi Calm Calm - N/A   Overcast
10:36 PM 30.2 °F - 24.8 °F 80% 29.68 in 10.0 mi Calm Calm - N/A   Overcast
10:55 PM 30.2 °F - 24.8 °F 80% 29.68 in 10.0 mi Calm Calm - N/A   Overcast
10:56 PM 30.2 °F - 24.8 °F 80% 29.68 in 10.0 mi Calm Calm - N/A   Overcast
11:35 PM 30.2 °F - 24.8 °F 80% 29.68 in 10.0 mi Calm Calm - N/A   Overcast
11:36 PM 30.2 °F - 24.8 °F 80% 29.68 in 10.0 mi Calm Calm - N/A   Overcast
11:55 PM 30.2 °F - 24.8 °F 80% 29.68 in 10.0 mi Calm Calm - N/A   Overcast
11:56 PM 30.2 °F - 24.8 °F 80% 29.67 in 10.0 mi Calm Calm - N/A   Overcast